Location: Newark
(11.2914°S, 14.4718°E)
Time: 00:51:51
(UTC+00:00)

Tiros 1 despin weight - Pass Details

Date: 25 September 2019
Orbit: 594 x 643 km, 48.2° (Epoch: 16 October)

Event Time Altitude Azimuth Distance (km) Brightness Sun altitude
Rises 18:58:03 0° 315° (NW) 2,812 ? -30.2°
Reaches altitude 10° 19:00:20 10° 312° (NW) 1,918 ? -30.7°
Enters shadow 19:01:59 22° 307° (NW) 1,296 ? -31.1°
Maximum altitude 19:04:41 66° 230° (SW) 655 - -31.8°
Drops below altitude 10° 19:09:08 10° 147° (SSE) 1,951 - -32.9°
Sets 19:11:28 0° 144° (SE) 2,866 - -33.4°
